Location: American Medical Response
(33.3472°N, 96.5511°W)
Time: 20:48:30
(UTC+00:00)

SL-4 R/B - Pass Details

Date: 10 July 2022
Orbit: 425 x 653 km, 51.6° (Epoch: 11 August)

Event Time Altitude Azimuth Distance (km) Brightness Sun altitude
Rises 09:00:34 0° 331° (NNW) 2,533 5.7 -24.1°
Reaches altitude 10° 09:04:08 10° 7° (N) 1,712 5.3 -23.6°
Maximum altitude 09:05:25 11° 26° (NNE) 1,650 5.5 -23.4°
Drops below altitude 10° 09:06:49 10° 47° (NE) 1,768 5.7 -23.3°
Sets 09:10:32 0° 81° (E) 2,716 6.3 -22.8°
